AST,Max TemperatureF,Mean TemperatureF,Min TemperatureF,Max Dew PointF,MeanDew PointF,Min DewpointF,Max Humidity, Mean Humidity, Min Humidity, Max Sea Level PressureIn, Mean Sea Level PressureIn, Min Sea Level PressureIn, Max VisibilityMiles, Mean VisibilityMiles, Min VisibilityMiles, Max Wind SpeedMPH, Mean Wind SpeedMPH, Max Gust SpeedMPH,PrecipitationIn, CloudCover, Events, WindDirDegrees
2013-12-1,83,75,67,64,59,50,88,59,23,30.22,30.14,30.09,10,4,3,12,5,,0.00,,,301
2013-12-2,83,76,69,68,64,60,88,71,38,30.17,30.10,30.06,7,4,2,13,8,,0.00,1,,311
2013-12-3,81,74,67,67,62,57,88,69,42,30.08,30.02,29.95,9,5,4,10,7,,0.00,,,318
2013-12-4,83,74,64,63,58,41,88,62,18,30.08,30.01,29.98,9,5,3,12,4,,0.00,,,158
2013-12-5,80,74,68,65,63,61,78,69,52,30.06,29.99,29.95,9,7,6,10,6,,0.00,3,,130
2013-12-6,87,78,68,67,59,41,88,61,12,30.04,29.98,29.95,10,5,3,9,4,,0.00,2,,195
2013-12-7,80,74,68,66,62,55,88,65,38,30.10,30.05,29.98,9,6,4,16,8,,0.00,1,,327
2013-12-8,81,74,68,61,58,54,73,57,32,30.13,30.06,30.01,10,8,7,12,8,,0.00,,,318
2013-12-9,82,75,68,61,57,35,73,56,18,30.07,30.00,29.95,10,8,7,12,9,,0.00,,,319
2013-12-10,77,70,64,61,56,50,73,57,38,30.08,30.01,29.95,9,7,6,21,13,,0.00,2,,339
2013-12-11,72,66,60,59,53,49,68,60,39,30.15,30.06,30.01,9,8,6,13,10,,0.00,,,355
2013-12-12,78,72,67,68,64,59,88,72,46,30.07,30.01,29.98,9,9,6,13,8,,0.00,,,125
2013-12-13,84,78,71,68,65,54,88,70,35,30.05,30.01,29.95,9,6,5,17,11,25,0.00,,,113
2013-12-14,83,76,69,68,65,61,88,68,42,30.10,30.03,29.98,10,7,4,12,5,,0.00,4,,138
2013-12-15,75,70,64,67,54,43,83,57,23,30.19,30.10,30.04,6,4,4,26,16,32,0.00,3,,330
2013-12-16,67,63,59,52,49,45,68,58,40,30.27,30.20,30.15,7,6,6,20,15,32,0.00,1,,312
2013-12-17,71,64,57,54,49,45,68,58,37,30.23,30.17,30.12,10,8,6,15,11,,0.00,3,,310
2013-12-18,73,66,59,55,53,51,77,63,40,30.21,30.14,30.09,9,7,2,13,8,,0.00,,,312
2013-12-19,75,68,61,61,56,46,82,66,34,30.17,30.10,30.06,10,6,4,8,4,,0.00,1,,343
2013-12-20,75,68,62,59,53,48,78,59,32,30.21,30.15,30.09,9,7,6,18,7,26,0.00,1,,311
2013-12-21,67,62,57,52,49,45,68,59,40,30.24,30.16,30.12,9,7,6,17,12,26,0.00,,,302
2013-12-22,70,64,57,50,45,39,63,50,34,30.22,30.15,30.09,9,7,6,12,8,,0.00,1,,302
2013-12-23,69,63,57,46,42,39,59,47,26,30.30,30.22,30.15,9,7,6,12,9,,0.00,1,,319
2013-12-24,70,64,58,54,49,39,72,55,33,30.38,30.33,30.24,9,6,3,16,7,,0.00,1,,339
2013-12-25,73,66,60,52,44,30,68,45,17,30.43,30.36,30.30,12,8,6,12,5,,0.00,1,,329
2013-12-26,71,65,59,52,44,34,63,47,28,30.38,30.31,30.24,10,9,6,13,9,,0.00,1,,310
2013-12-27,68,62,55,50,47,45,72,57,32,30.35,30.27,30.21,10,7,6,12,7,,0.00,1,,299
2013-12-28,68,62,55,50,47,43,72,57,33,30.32,30.23,30.18,9,7,6,9,5,,0.00,2,,281
2013-12-29,71,64,56,56,49,39,77,59,38,30.24,30.15,30.09,7,6,5,8,4,,0.00,1,,295
2013-12-30,74,66,58,59,53,48,88,64,33,30.19,30.11,30.06,9,5,2,7,3,,0.00,1,,51
2013-12-31,73,66,60,59,56,50,88,69,34,30.18,30.09,30.06,10,7,6,14,7,,0.00,1,,140